星链-3057 (STARLINK-3057 )

导读 | 星芒AI

STARLINK-3057 是 SpaceX Starlink 项目中的一颗低轨通信卫星,属于第 30 批发射的 Starlink 卫星群。该卫星旨在为全球用户提供高速互联网服务,特别是偏远和网络基础设施薄弱的地区。它运行在约 550 公里的轨道高度,配备先进通信设备和激光链路,以实现高效数据传输。STARLINK-3057 与其他 Starlink 卫星协同工作,提升网络覆盖和连接稳定性,推动全球宽带接入的普及。

基本信息
目录编号:
49139
目录名称:
STARLINK-3057
国际标识:
2021-082K
轨道中心:
EARTH
卫星名称:
星链-3057
卫星全名:
星链-3057 (STARLINK-3057 )
卫星状态:
在轨 (已飞行1508 天)
发射日期:
2021-09-14 UTC
国别 :
美国 (US)
星等 :
--
轨道信息
数据来源 国际轨道数据
星历时间: 2025-10-31T05:34:11+0800
9小时前
查看轨道信息
半长轴: 6950.179km
偏心率: 0.0003136
轨道倾角: 70.000°
近地点辐角 274.285°
升交点赤经 221.692°
平近点角 85.795°
近地点: 569.864km
远地点: 574.224km
周期: 96.107分钟
每日圈数: 14.983345
详细信息
固有亮度:
5
最大亮度:
2.5
卫星平台:
Starlink v1.5
覆盖范围:
全球
运营商:
太空探索技术公司
运营商所在国:
美国
制造商(研发单位):
太空探索技术公司
制造商所在国:
美国
使用方式:
暂无
卫星简介
星链(Starlink)计划是由太空探索技术公司(SpaceX)提出的一个巨型低轨卫星互联网星座项目,计划在2019年至2024年间在太空搭建由约1.2万颗卫星组成的“星链”网络,其中1584颗将部署在地球上空550千米处的近地轨道,并从2020年开始工作。该卫星仍在工作。
2D轨道图
3D轨道图
轨道高度分析图
轨道倾角分析图
轨道综合分析图
查看轨道综合分析图